Location: Newark
(49.8969°N, 3.3422°E)
Time: 17:14:13
(UTC+00:00)

Tiros 1 - Pass Details

Date: 14 May 2021
Orbit: 630 x 664 km, 48.4° (Epoch: 11 June)

Event Time Altitude Azimuth Distance (km) Brightness Sun altitude
Exits shadow 03:06:45 - 270° (W) 2,765 9.9 -8.0°
Reaches altitude 10° 03:08:32 10° 269° (W) 2,071 9.3 -7.8°
Maximum altitude 03:13:18 74° 185° (S) 681 7.2 -7.2°
Drops below altitude 10° 03:18:02 10° 100° (E) 2,048 10.3 -6.7°
Sets 03:20:21 0° 99° (E) 2,952 11.2 -6.4°
